Regional Weather Roundup
Issued by NWS Sterling, VA

Home | Current Version | Previous Version | Graphics & Text | Print | Product List | Glossary On
Versions: 1 2 3 4 5 6 7 8 9 10 11 12 13 14 15 16 17 18 19 20 21 22 23 24 25 26 27 28 29 30 31 32 33 34 35 36 37 38 39 40 41 42 43 44 45 46 47 48 49 50
000
ASUS41 KLWX 060310
RWRLWX

REGIONAL WEATHER ROUNDUP
NATIONAL WEATHER SERVICE BALTIMORE MD/WASHINGTON DC
1100 PM EDT SUN JUL 05 2015

Note: "FAIR" indicates few or no clouds below 12,000 feet
with no significant weather and/or obstructions to visibility.
 TC=TEMPERATURE CELSIUS

 * =Non NWS site. Station does not report precipitation (e.g. rain,
    snow, etc.), thunder, or fog.

DCZ001-MDZ009-015-VAZ040>042-051-053>054-060400-
WASHINGTON METRO

CITY           SKY/WX    TMP DP  RH WIND       PRES   REMARKS
WASHINGTON NAT CLOUDY    79  70  74 CALM      30.13S
DULLES         CLOUDY    76  70  82 S6        30.13R
ANDREWS AFB    CLOUDY    73  73  99 SE5       30.13R
FT BELVOIR     CLOUDY    73  70  91 CALM      30.13R
QUANTICO       CLOUDY    77  70  79 SE7       30.13S
COLLEGE PARK*  CLOUDY    73  72  94 CALM      30.13S
LEESBURG*      MOCLDY    77  73  88 SE6       30.14S
MANASSAS*      CLOUDY    73  72  94 SE5         N/A
GAITHERSBURG*  MOCLDY    72  66  83 CALM      30.18S

$$

MDZ006>007-011-014-060400-
BALTIMORE METRO

CITY           SKY/WX    TMP DP  RH WIND       PRES   REMARKS
BWI AIRPORT    CLOUDY    75  68  78 CALM      30.13S
MD SCIENCE CTR   N/A     78  70  76 MISG      30.13F
MARTIN STATE   MOCLDY    75  72  88 E5        30.14F
ANNAPOLIS      CLOUDY    76  71  85 CALM      30.12F
FORT MEADE*    CLOUDY    70  66  88 CALM      30.16S

$$

MDZ012-015-019>023-060400-
MARYLAND EASTERN SHORE

CITY           SKY/WX    TMP DP  RH WIND       PRES   REMARKS
OCEAN CITY     CLOUDY    75  71  87 CALM      30.16R
SALISBURY      CLOUDY    72  70  93 SE3       30.16R
BAY BRIDGE AP*   N/A     75  70  83 SE5       30.13F
CAMBRIDGE*     CLOUDY    77  72  83 SE6       30.15R
EASTON*        CLOUDY   N/A N/A N/A SE7       30.17F

$$

MDZ017>025-060400-
SOUTHERN MARYLAND

CITY           SKY/WX    TMP DP  RH WIND       PRES   REMARKS
PATUXENT RIVER LGT RAIN  76  72  87 S7        30.14R
ST INIGOES     NOT AVBL
LEONARDTOWN*   CLOUDY    73  70  88 CALM      30.15S

$$

MDZ003>005-060400-
NORTH CENTRAL MARYLAND

CITY           SKY/WX    TMP DP  RH WIND       PRES   REMARKS
FREDERICK*     MOCLDY    73  72  94 CALM      30.16R
HAGERSTOWN APT MOCLDY    75  67  76 E5        30.13S
WESTMINSTER*   MOCLDY    73  70  88 SE3       30.15F

$$

MDZ501>502-060400-
WESTERN MARYLAND

CITY           SKY/WX    TMP DP  RH WIND       PRES   REMARKS
OAKLAND*       CLOUDY    64 N/A N/A SE9G16    30.20S FOG
CUMBERLAND*    CLOUDY    73  70  88 CALM      30.16S

$$

VAZ025>031-060400-
SHENANDOAH VALLEY

CITY           SKY/WX    TMP DP  RH WIND       PRES   REMARKS
WINCHESTER*    CLOUDY    73  70  88 CALM      30.13S
FRONT ROYAL*   CLOUDY    72  70  94 CALM      30.12S
LURAY*         LGT RAIN  72  72 100 E5        30.14R
NEW MARKET*    FAIR      71  69  94 CALM      30.12S
STAUNTON*      RAIN      73  71  93 CALM      30.16F
WAYNESBORO*    CLOUDY    70  70  99 E3        30.15S

$$

WVZ021-048>050-054>055-060400-
EASTERN WEST VIRGINIA PANHANDLE

CITY           SKY/WX    TMP DP  RH WIND       PRES   REMARKS
MARTINSBURG    MOCLDY    73  69  87 CALM      30.13S
PETERSBURG*    RAIN      71  67  89 CALM      30.14R

$$

VAZ036>039-050-060400-
CENTRAL FOOTHILLS

CITY           SKY/WX    TMP DP  RH WIND       PRES   REMARKS
CHARLOTTESVILL LGT RAIN  74  72  93 S3        30.13R FOG
CULPEPER*      LGT RAIN  70  70  99 CALM      30.13F
ORANGE*        LGT RAIN  72  72 100 CALM      30.14F
GORDONSVILLE*  FAIR      72  72 100 CALM      30.13R FOG
WARRENTON*     DRIZZLE   73  73 100 CALM      30.13S

$$

VAZ055>057-060400-
NORTH AND CENTRAL PIEDMONT

CITY           SKY/WX    TMP DP  RH WIND       PRES   REMARKS
FREDERICKSBRG* CLOUDY    76  76 100 SE5       30.12S
STAFFORD*      CLOUDY    72  70  93 CALM      30.16F FOG

$$

NCZ024-NYZ072-PAZ021-071-VAZ022-071-060400-
OTHER REGIONAL OBSERVATIONS

CITY           SKY/WX    TMP DP  RH WIND       PRES   REMARKS
NEW YORK CITY  PTCLDY    75  64  68 CALM      30.17R
PHILADELPHIA   MOCLDY    76  67  73 SW6       30.15R
PITTSBURGH     CLOUDY    73  59  61 E5        30.10S
ROANOKE        CLOUDY    69  68  96 SE3       30.14S
RICHMOND       LGT RAIN  74  72  93 E5        30.13S
RALEIGH        CLOUDY    70  68  93 E5        30.12S

$$

ANZ530>537-060400-
MARINE OBSERVATIONS

STATION/POSITION TIME  TEMP    WIND        PRES
                       AIR SEA DIR/SP/G
                 (UTC) (F)     (DEG/KT/KT) (MB)
THOMAS PT LIGHT  NOT AVBL
BALT KEY BRIDGE  0200   77     100/  5/  6 1020.2R
COVE POINT       0200   78     190/ 11/ 12 1020.9R
LEWISETTA        0200   77 81  180/  5/  5 1020.3R
SOLOMONS ISLAND  0200      82                N/A
PINEY POINT      0200          180/ 10/ 12   N/A

$$




USA.gov is the U.S. government's official web portal to all federal, state and local government web resources and services.